Regional Weather Roundup
Issued by NWS

Home | Current Version | Previous Version | Graphics & Text | Print | Product List | Glossary On
Versions: 1 2 3 4 5 6 7 8 9 10 11 12 13 14 15 16 17 18 19 20 21 22 23 24 25 26 27 28 29 30 31 32 33 34 35 36 37 38 39 40 41 42 43 44 45 46 47 48 49 50
000
ASUS45 KABQ 261810
RWRNM
WEATHER ROUNDUP FOR NEW MEXICO
NATIONAL WEATHER SERVICE ALBUQUERQUE NM
1100 AM MST THU FEB 26 2015

NOTE: "FAIR" MEANS FEW OR NO CLOUDS BELOW 12,000 FEET AGL WITH NO
       SIGNIFICANT WEATHER OR OBSTRUCTIONS TO VISION.

      THIS PRODUCT IS RELEASED AS TWO VERSIONS.  ONE VERSION NEAR
      THE TOP OF THE HOUR CONTAINING PRELIMINARY DATA FROM ALBUQUERQUE
      AND OTHER STATIONS.  A FINAL VERSION WITH ADDITIONAL DATA IS
      ISSUED ABOUT 10 MINUTES AFTER THE HOUR.

NMZ501-503-504-510>518-261900-
NORTHWEST PLATEAU/NORTHCENTRAL MOUNTAINS

CITY           SKY/WX    TMP DP  RH WIND       PRES   REMARKS
FARMINGTON     SUNNY     36  27  69 E6        30.00F WCI  31
6HR MIN TEMP:  26; 6HR MAX TEMP:  36;

LOS ALAMOS     CLOUDY    24  20  86 S15G21    30.07R WCI  11
SANTA FE       CLOUDY    28  17  63 SE21G28   30.09S WCI  15
6HR MIN TEMP:  27; 6HR MAX TEMP:  29; 6HR PCP: TRACE;

TAOS           CLOUDY    28  21  74 SW10      30.03S WCI  19
ANGEL FIRE     LGT SNOW  19  13  77 S14       30.01S WCI   6

$$
NMZ402-403-502-505>509-261900-
WESTCENTRAL MOUNTAINS/SOUTHWEST MOUNTAINS

CITY           SKY/WX    TMP DP  RH WIND       PRES   REMARKS
GALLUP         CLOUDY    38  27  64 NE7       30.00F WCI  33
6HR MIN TEMP:  21; 6HR MAX TEMP:  38;

GRANTS         PTSUNNY   42  17  36 E6        30.03F
SILVER CITY    MOSUNNY   50  19  29 S8G17     30.04F

$$
NMZ407-409-411-412-261900-
SOUTHERN DESERTS

CITY           SKY/WX    TMP DP  RH WIND       PRES   REMARKS
LORDSBURG      FAIR      55  30  38 SE9       30.01S
DEMING         MOSUNNY   55  26  32 E8        30.02F
6HR MIN TEMP:  32; 6HR MAX TEMP:  55;

LAS CRUCES     SUNNY     52  31  44 SE17      30.06F
HOLLOMAN AFB   MOSUNNY   52  29  41 SW10      30.05F
ALAMOGORDO     SUNNY     52  28  40 SW14      30.06F
T OR C         PTSUNNY   49  27  42 NE7       30.03F
6HR MIN TEMP:  37; 6HR MAX TEMP:  49;


$$
NMZ519>523-261900-
CENTRAL VALLEYS/CENTRAL HIGHLANDS

CITY           SKY/WX    TMP DP  RH WIND       PRES   REMARKS
ALBUQUERQUE    PTSUNNY   39  22  50 E24       30.08R WCI  28
6HR MIN TEMP:  32; 6HR MAX TEMP:  41;

DOUBLE EAGLE   PTSUNNY   39  21  48 SE14G22   30.08S WCI  31
MORIARTY ARPT  FLURRIES  28  21  76 SE14      30.14S WCI  17
6HR MIN TEMP:  26; 6HR MAX TEMP:  31;

CLINES CORNERS LGT SNOW  22  19  89 SE14      30.08R FOG     WCI   9
6HR MIN TEMP:  21; 6HR MAX TEMP:  24; 6HR PCP:  0.01;

BELEN          FAIR      43  25  48 SE15      30.08S
6HR MIN TEMP:  23; 6HR MAX TEMP:  44;

SOCORRO          N/A     46  26  45 E7        30.07F
6HR MIN TEMP:  29; 6HR MAX TEMP:  46;


$$
NMZ524>526-539-540-261900-
SOUTHCENTRAL MOUNTAINS

CITY           SKY/WX    TMP DP  RH WIND       PRES   REMARKS
RUIDOSO        CLOUDY    25  23  93 SE12      30.13S FOG     WCI  14

$$
NMZ527>531-261900-
NORTHEAST HIGHLANDS/NORTHEAST PLAINS

CITY           SKY/WX    TMP DP  RH WIND       PRES   REMARKS
LAS VEGAS      LGT SNOW  20  17  88 S18       30.11S FOG     WCI   5
6HR MIN TEMP:  18; 6HR MAX TEMP:  20; 6HR PCP:  0.02;

RATON          LGT SNOW  20  16  84 S15       30.10S FOG     WCI   6
6HR MIN TEMP:  20; 6HR MAX TEMP:  23; 6HR PCP:  0.04;

CLAYTON        LGT SNOW  19  12  74 NE13      30.23S WCI   6
6HR MIN TEMP:  17; 6HR MAX TEMP:  21; 6HR PCP:  0.04;


$$
NMZ532>537-261900-
EASTCENTRAL PLAINS

CITY           SKY/WX    TMP DP  RH WIND       PRES   REMARKS
TUCUMCARI      LGT SNOW  24  19  81 E16       30.26S WCI  11
6HR MIN TEMP:  23; 6HR MAX TEMP:  30; 6HR PCP: TRACE;

CANNON AFB     FLURRIES  22  18  85 NE18      30.23F WCI   7
6HR MIN TEMP:  21; 6HR MAX TEMP:  29; 6HR PCP:  0.02;

CLOVIS AIRPORT CLOUDY    21  18  86 NE18      30.25F WCI   6

$$
NMZ028-029-538-261900-
SOUTHEAST PLAINS

CITY           SKY/WX    TMP DP  RH WIND       PRES   REMARKS
ROSWELL        CLOUDY    33  24  69 NE18      30.23R WCI  22
6HR MIN TEMP:  32; 6HR MAX TEMP:  39; 6HR PCP:  0.01;

ARTESIA        DRIZZLE   32  32 100 NE13      30.24R WCI  22
CARLSBAD       CLOUDY    35  32  88 E12       30.22S FOG     WCI  27
6HR MIN TEMP:  36; 6HR MAX TEMP:  44; 6HR PCP: TRACE;

HOBBS          CLOUDY    30  23  74 NE22      30.22S WCI  17


$$



USA.gov is the U.S. government's official web portal to all federal, state and local government web resources and services.